Total_Precipitation_Accumulation
0.48 0.57 0.56 0.59 0.64 0.63 0.67 0.64 0.54 0.44 0.39 0.29 0.17 0.09 0.06 0.04 0.04 0.02 0.02 0.03 0.04 0.04 0.03 0.02 0.01 0.01 0.02 0.01 0.02 0.02 0.02 0.01 0.01 0.01 0.01 0.01 0.01 0.01
0.39 0.44 0.47 0.48 0.49 0.48 0.54 0.64 0.58 0.43 0.37 0.34 0.25 0.18 0.16 0.11 0.11 0.08 0.05 0.04 0.03 0.03 0.02 0.02 0.02 0.01 0.01 0.01 0.01 0.01 0.01 0.01 0.01 0.01 0.01 0.00 0.00 0.01
0.21 0.23 0.29 0.39 0.45 0.47 0.49 0.56 0.62 0.54 0.41 0.42 0.31 0.29 0.29 0.24 0.22 0.15 0.08 0.06 0.05 0.04 0.03 0.02 0.02 0.01 0.01 0.01 0.01 0.01 0.01 0.00 0.00 0.01 0.01 0.01 0.01 0.01
0.16 0.15 0.18 0.25 0.31 0.37 0.42 0.46 0.52 0.58 0.54 0.53 0.51 0.39 0.36 0.33 0.33 0.29 0.19 0.13 0.12 0.16 0.17 0.09 0.05 0.03 0.03 0.02 0.01 0.01 0.00 0.00 0.01 0.01 0.02 0.02 0.01 0.01
0.22 0.20 0.20 0.22 0.25 0.31 0.40 0.49 0.52 0.56 0.57 0.52 0.55 0.55 0.44 0.41 0.33 0.26 0.20 0.21 0.21 0.20 0.27 0.25 0.19 0.14 0.11 0.10 0.08 0.05 0.04 0.04 0.05 0.05 0.04 0.03 0.02 0.02
0.30 0.25 0.20 0.20 0.26 0.38 0.50 0.57 0.58 0.57 0.57 0.57 0.58 0.60 0.52 0.42 0.32 0.28 0.30 0.32 0.29 0.23 0.18 0.21 0.22 0.19 0.16 0.15 0.14 0.13 0.12 0.10 0.09 0.08 0.07 0.08 0.07 0.07
0.31 0.26 0.25 0.23 0.23 0.32 0.43 0.60 0.61 0.62 0.60 0.61 0.60 0.55 0.47 0.38 0.32 0.30 0.29 0.35 0.30 0.25 0.22 0.18 0.20 0.20 0.21 0.21 0.21 0.21 0.18 0.17 0.15 0.13 0.12 0.11 0.11 0.12
0.31 0.29 0.28 0.25 0.21 0.20 0.20 0.33 0.45 0.53 0.60 0.58 0.57 0.53 0.49 0.42 0.39 0.32 0.25 0.24 0.24 0.26 0.22 0.24 0.24 0.25 0.30 0.30 0.35 0.39 0.35 0.30 0.25 0.20 0.18 0.16 0.16 0.16
0.29 0.33 0.34 0.29 0.29 0.30 0.22 0.22 0.23 0.26 0.31 0.36 0.42 0.45 0.46 0.42 0.37 0.31 0.25 0.22 0.23 0.22 0.18 0.20 0.22 0.23 0.26 0.26 0.24 0.25 0.26 0.25 0.22 0.20 0.19 0.18 0.18 0.17
0.33 0.31 0.35 0.36 0.38 0.42 0.31 0.30 0.27 0.25 0.23 0.20 0.25 0.30 0.30 0.33 0.34 0.36 0.34 0.23 0.16 0.13 0.11 0.12 0.14 0.15 0.14 0.14 0.15 0.13 0.13 0.14 0.14 0.15 0.14 0.14 0.13 0.12
0.34 0.34 0.38 0.40 0.54 0.52 0.42 0.38 0.36 0.31 0.29 0.30 0.34 0.33 0.33 0.36 0.38 0.41 0.36 0.29 0.25 0.23 0.21 0.16 0.13 0.11 0.09 0.08 0.08 0.08 0.07 0.07 0.07 0.07 0.07 0.08 0.09 0.10
0.38 0.38 0.51 0.47 0.52 0.45 0.37 0.42 0.46 0.38 0.34 0.38 0.37 0.35 0.32 0.33 0.39 0.40 0.45 0.46 0.41 0.35 0.28 0.22 0.19 0.19 0.17 0.13 0.08 0.06 0.05 0.05 0.05 0.05 0.06 0.06 0.07 0.07
0.33 0.34 0.30 0.36 0.32 0.30 0.31 0.34 0.46 0.38 0.35 0.37 0.30 0.25 0.22 0.23 0.27 0.29 0.37 0.41 0.43 0.42 0.36 0.29 0.26 0.24 0.20 0.17 0.12 0.08 0.05 0.04 0.04 0.04 0.05 0.06 0.06 0.05
0.17 0.22 0.21 0.22 0.22 0.25 0.23 0.30 0.35 0.29 0.28 0.30 0.25 0.21 0.20 0.19 0.17 0.18 0.21 0.26 0.31 0.37 0.36 0.28 0.23 0.20 0.18 0.15 0.13 0.10 0.07 0.05 0.04 0.04 0.04 0.05 0.04 0.04
0.08 0.13 0.17 0.21 0.18 0.18 0.21 0.28 0.25 0.24 0.30 0.29 0.25 0.21 0.15 0.13 0.11 0.11 0.13 0.15 0.18 0.19 0.22 0.27 0.29 0.25 0.19 0.14 0.09 0.07 0.07 0.07 0.05 0.04 0.05 0.05 0.04 0.03
0.07 0.14 0.20 0.25 0.20 0.20 0.21 0.22 0.25 0.29 0.32 0.29 0.24 0.17 0.11 0.10 0.10 0.10 0.11 0.10 0.11 0.12 0.14 0.19 0.31 0.41 0.41 0.35 0.29 0.22 0.19 0.16 0.14 0.13 0.11 0.08 0.07 0.07
0.13 0.26 0.35 0.33 0.29 0.24 0.23 0.25 0.27 0.27 0.26 0.26 0.23 0.16 0.13 0.11 0.09 0.06 0.06 0.07 0.09 0.10 0.11 0.09 0.09 0.14 0.23 0.29 0.33 0.34 0.34 0.33 0.31 0.30 0.25 0.17 0.13 0.14
0.27 0.42 0.50 0.54 0.51 0.44 0.37 0.35 0.33 0.31 0.28 0.26 0.24 0.19 0.16 0.13 0.10 0.08 0.07 0.07 0.08 0.09 0.09 0.07 0.04 0.05 0.08 0.12 0.13 0.18 0.22 0.22 0.24 0.27 0.27 0.22 0.16 0.17
0.60 0.64 0.65 0.66 0.65 0.54 0.43 0.35 0.27 0.24 0.22 0.21 0.19 0.15 0.12 0.09 0.07 0.05 0.05 0.05 0.05 0.05 0.04 0.04 0.04 0.06 0.08 0.10 0.11 0.09 0.13 0.16 0.18 0.19 0.19 0.18 0.15 0.15
0.71 0.72 0.78 0.74 0.68 0.50 0.34 0.25 0.17 0.13 0.12 0.11 0.08 0.06 0.04 0.03 0.03 0.02 0.03 0.02 0.02 0.02 0.03 0.05 0.06 0.07 0.09 0.11 0.11 0.09 0.10 0.15 0.18 0.18 0.17 0.16 0.14 0.14
0.38 0.44 0.47 0.44 0.38 0.27 0.16 0.11 0.06 0.03 0.02 0.02 0.02 0.01 0.01 0.01 0.02 0.02 0.03 0.02 0.03 0.04 0.04 0.04 0.05 0.05 0.05 0.08 0.10 0.09 0.09 0.12 0.13 0.12 0.13 0.15 0.16 0.16
0.12 0.13 0.12 0.11 0.09 0.06 0.03 0.03 0.03 0.01 0.01 0.00 0.01 0.01 0.02 0.02 0.02 0.03 0.04 0.04 0.04 0.04 0.04 0.04 0.03 0.04 0.05 0.07 0.09 0.08 0.06 0.05 0.08 0.13 0.14 0.14 0.14 0.15
0.03 0.04 0.04 0.03 0.02 0.01 0.01 0.01 0.01 0.01 0.00 0.00 0.01 0.01 0.02 0.03 0.03 0.03 0.03 0.03 0.04 0.04 0.03 0.03 0.03 0.03 0.04 0.06 0.07 0.07 0.06 0.05 0.06 0.09 0.17 0.26 0.23 0.16